TimePDT,TemperatureF,Dew PointF,Humidity,Sea Level PressureIn,VisibilityMPH,Wind Direction,Wind SpeedMPH,Gust SpeedMPH,PrecipitationIn,Events,Conditions,WindDirDegrees,DateUTC
12:53 AM,69.1,60.1,73,29.96,10.0,Calm,Calm,-,N/A,,Clear,0,2012-09-19 07:53:00
1:53 AM,69.1,59.0,70,29.96,10.0,Calm,Calm,-,N/A,,Clear,0,2012-09-19 08:53:00
2:53 AM,69.1,60.1,73,29.95,10.0,Calm,Calm,-,N/A,,Clear,0,2012-09-19 09:53:00
3:53 AM,66.9,59.0,76,29.94,10.0,Calm,Calm,-,N/A,,Clear,0,2012-09-19 10:53:00
4:53 AM,66.9,60.1,79,29.94,10.0,Calm,Calm,-,N/A,,Clear,0,2012-09-19 11:53:00
5:53 AM,66.0,59.0,78,29.95,10.0,Calm,Calm,-,N/A,,Clear,0,2012-09-19 12:53:00
6:53 AM,66.0,57.9,75,29.95,10.0,Calm,Calm,-,N/A,,Clear,0,2012-09-19 13:53:00
7:53 AM,70.0,57.9,65,29.96,10.0,Calm,Calm,-,N/A,,Clear,0,2012-09-19 14:53:00
8:53 AM,73.0,61.0,66,29.96,10.0,Calm,Calm,-,N/A,,Clear,0,2012-09-19 15:53:00
9:53 AM,78.1,59.0,52,29.96,10.0,Calm,Calm,-,N/A,,Clear,0,2012-09-19 16:53:00
10:53 AM,82.9,55.0,38,29.96,10.0,Variable,3.5,-,N/A,,Clear,0,2012-09-19 17:53:00
11:53 AM,86.0,54.0,33,29.95,10.0,SW,3.5,-,N/A,,Clear,230,2012-09-19 18:53:00
12:53 PM,88.0,60.1,39,29.92,10.0,SSW,6.9,-,N/A,,Clear,210,2012-09-19 19:53:00
1:53 PM,87.1,59.0,39,29.90,10.0,Variable,4.6,-,N/A,,Clear,0,2012-09-19 20:53:00
2:53 PM,89.1,57.0,34,29.88,10.0,South,8.1,-,N/A,,Clear,190,2012-09-19 21:53:00
3:53 PM,91.0,46.9,22,29.87,10.0,WSW,8.1,-,N/A,,Clear,250,2012-09-19 22:53:00
4:53 PM,89.1,50.0,26,29.87,10.0,Variable,5.8,-,N/A,,Clear,0,2012-09-19 23:53:00
6:53 PM,81.0,52.0,36,29.87,10.0,West,4.6,-,N/A,,Clear,280,2012-09-20 01:53:00
7:53 PM,79.0,53.1,40,29.89,10.0,Variable,3.5,-,N/A,,Clear,0,2012-09-20 02:53:00
8:53 PM,75.9,53.1,45,29.91,10.0,Calm,Calm,-,N/A,,Clear,0,2012-09-20 03:53:00
9:53 PM,75.0,57.0,53,29.92,10.0,South,3.5,-,N/A,,Clear,190,2012-09-20 04:53:00
10:53 PM,73.0,62.1,68,29.94,10.0,Calm,Calm,-,N/A,,Clear,0,2012-09-20 05:53:00
11:53 PM,71.1,63.0,75,29.94,10.0,South,3.5,-,N/A,,Clear,190,2012-09-20 06:53:00